Tracking 26894 objects as of 1-Feb-2023
HD Live streaming from Space Station
objects crossing your sky now

CORVUS BC1

Track CORVUS BC1 now!
10-day predictions


NORAD ID: 42847
Int'l Code: 2017-042Y
Perigee: 587.8 km
Apogee: 598.6 km
Inclination: 97.4 °
Period: 96.4 minutes
Semi major axis: 6964 km
RCS: Unknown
Launch date: July 14, 2017
Source: United States (US)
Launch site: TYURATAM MISSILE AND SPACE COMPLEX (TTMTR)
Your satellite tracking list
Your tracking list is empty




NASA's NSSDC Master Catalog

Two Line Element Set (TLE):
1 42847U 17042Y   23032.52610039  .00002682  00000-0  25766-3 0  9992
2 42847  97.3974 241.9588 0007810 316.2564  43.8037 14.93813301302470
Source of the keplerian elements: AFSPC